Dewpoint
70 71 73 72 73 73 71 73 74 73 74 75 75 75 74 73 73 75 75 73 71 74 74 72 74 75 71 68 66 66 66 66 64 64 64 68 73 73 72 73 73 73 68
72 74 72 71 72 71 72 72 73 73 73 74 75 75 74 74 75 75 74 71 72 73 73 74 73 70 74 76 71 73 70 71 68 71 70 67 72 75 74 75 73 71 70
71 70 69 69 69 69 69 71 72 73 72 71 73 74 74 74 74 75 75 74 73 71 73 73 73 73 74 71 73 70 68 67 70 68 67 67 68 69 71 74 74 75 70
68 68 70 68 68 68 71 73 73 75 73 72 73 73 74 74 74 74 74 75 74 73 73 76 74 73 73 73 72 74 73 73 74 70 68 66 66 69 68 68 70 71 71
69 68 70 71 72 72 72 73 74 75 73 74 74 73 73 73 71 73 73 74 76 72 72 73 72 71 70 70 70 73 75 70 66 66 65 64 62 64 67 64 65 65 67
68 68 72 73 73 74 75 75 77 76 77 77 75 73 73 70 65 66 70 71 73 73 70 71 71 70 70 68 68 69 71 73 71 68 66 66 73 70 68 66 65 65 64
68 70 71 73 72 73 73 74 75 76 77 77 77 76 74 73 64 64 66 72 71 70 72 71 69 66 68 68 67 67 67 66 68 73 72 71 74 73 76 73 75 73 70
69 69 71 71 72 72 72 73 75 73 75 75 75 76 76 73 65 63 65 73 71 72 71 71 71 71 71 70 71 71 70 69 69 67 71 74 74 74 74 73 74 74 73
69 70 71 71 72 71 71 72 72 74 74 74 74 76 75 75 62 62 66 71 69 71 72 75 74 73 66 64 71 70 69 68 63 65 66 64 64 63 65 69 69 69 66
70 71 73 74 72 72 72 74 75 73 74 72 73 74 70 75 62 59 65 68 68 68 72 72 66 70 61 61 69 69 68 68 68 68 69 67 66 69 63 70 70 68 67
72 73 73 74 74 75 74 73 75 75 75 75 75 75 75 72 67 57 58 71 70 70 72 74 72 60 58 57 59 69 67 68 66 68 68 67 69 69 70 72 73 71 70
71 71 69 71 70 71 70 71 71 70 71 72 70 72 74 72 61 57 58 60 63 67 68 70 68 59 57 56 59 59 57 59 66 66 67 67 67 67 68 69 70 70 70
64 65 66 66 68 70 67 68 68 68 68 66 67 66 67 69 67 59 58 56 58 66 69 65 59 55 54 57 57 57 56 66 65 65 66 65 65 66 68 69 70 70 69
64 64 65 64 64 66 67 67 67 68 66 66 66 64 66 67 68 67 65 63 59 61 63 64 62 59 56 62 61 62 66 66 66 66 65 64 64 64 64 65 66 68 68
64 65 66 66 61 62 63 62 67 64 64 66 66 66 66 66 67 62 62 66 66 63 63 64 63 63 64 64 64 64 63 64 64 65 64 63 62 62 63 64 64 65 65
63 61 62 63 64 64 63 60 52 52 49 47 48 56 62 52 49 49 48 48 50 52 62 66 64 65 64 63 62 62 62 61 63 62 61 61 60 60 60 61 62 62 62
57 59 60 58 61 60 61 63 61 58 48 47 45 44 48 52 48 46 46 47 47 52 61 66 63 62 62 61 58 59 59 60 62 59 59 58 58 59 59 59 59 59 59
50 48 48 52 52 56 57 55 55 56 58 60 51 51 44 44 45 46 46 49 59 58 63 60 61 58 57 56 56 57 58 58 58 57 56 55 54 55 55 56 56 57 56
49 49 50 48 48 51 54 55 53 52 55 56 58 51 47 45 44 46 46 60 58 56 57 57 58 59 59 58 58 56 58 56 52 51 49 47 46 46 50 49 50 49 50
45 49 50 48 48 48 47 47 47 49 51 50 48 46 48 53 56 57 57 57 56 55 55 56 57 56 54 54 54 54 53 48 47 44 45 45 44 45 45 46 45 43 43
37 38 45 37 38 39 39 42 45 46 47 47 47 46 43 48 48 50 52 54 55 54 53 52 52 53 54 53 53 51 49 44 44 45 44 44 44 42 45 43 42 42 41
37 36 37 37 40 41 41 41 40 39 38 39 39 43 42 45 46 47 49 52 53 54 55 54 52 50 51 50 51 48 46 43 43 43 43 41 41 41 41 40 39 39 38
35 35 35 35 36 40 36 36 37 39 40 40 40 39 39 39 40 41 44 46 48 51 53 54 53 50 49 51 50 49 44 43 43 44 43 41 41 40 41 40 39 37 37
35 35 34 34 34 33 34 35 35 38 36 35 35 36 38 40 40 41 42 42 43 45 47 48 50 51 52 51 53 52 49 46 44 43 45 43 41 39 39 40 39 39 37
36 37 36 37 36 36 35 35 34 33 33 33 33 34 35 35 36 37 40 42 42 42 43 43 44 46 48 52 54 54 51 38 47 41 44 45 44 44 41 40 40 40 39
35 37 36 37 37 37 37 36 36 36 35 35 35 35 36 36 36 35 36 37 37 38 40 41 42 43 44 44 45 44 41 39 46 37 47 46 44 43 42 42 42 41 41
Lifted_Index
-4 -4 -5 -5 -5 -4 -4 -4 -5 -5 -5 -6 -6 -6 -6 -6 -6 -6 -6 -5 -5 -5 -5 -4 -4 -4 -4 -3 -3 -2 -2 -2 -2 -2 -3 -3 -4 -5 -5 -5 -5 -5 -4
-5 -5 -5 -4 -4 -4 -4 -4 -5 -5 -5 -6 -6 -6 -6 -6 -6 -6 -6 -5 -5 -5 -5 -5 -4 -4 -4 -4 -3 -3 -2 -2 -2 -3 -3 -3 -4 -5 -5 -6 -6 -5 -5
-5 -5 -4 -4 -4 -4 -4 -4 -5 -5 -5 -5 -6 -6 -6 -6 -6 -6 -6 -6 -5 -5 -5 -5 -5 -4 -4 -4 -4 -3 -3 -3 -3 -3 -3 -3 -3 -4 -4 -5 -6 -6 -5
-4 -4 -4 -4 -4 -4 -4 -5 -5 -5 -5 -5 -6 -6 -6 -6 -6 -6 -6 -6 -6 -5 -5 -5 -5 -5 -4 -4 -4 -4 -3 -3 -3 -3 -2 -2 -2 -3 -3 -4 -4 -5 -5
-4 -4 -4 -5 -5 -5 -5 -5 -6 -6 -6 -6 -6 -6 -6 -6 -6 -6 -6 -6 -6 -5 -5 -5 -5 -5 -4 -4 -4 -4 -4 -3 -3 -2 -2 -2 -2 -2 -3 -3 -3 -3 -4
-4 -4 -5 -5 -5 -5 -5 -6 -6 -6 -6 -6 -6 -6 -6 -5 -5 -4 -5 -5 -5 -5 -4 -5 -5 -4 -4 -4 -3 -4 -4 -3 -3 -2 -2 -2 -3 -3 -3 -3 -3 -3 -3
-4 -4 -5 -5 -5 -5 -5 -5 -6 -6 -6 -7 -6 -6 -6 -5 -4 -4 -4 -4 -5 -5 -5 -5 -5 -4 -4 -3 -4 -4 -4 -3 -3 -3 -3 -3 -3 -3 -3 -3 -3 -3 -3
-4 -4 -4 -4 -4 -4 -5 -5 -5 -6 -6 -6 -6 -6 -6 -5 -5 -4 -4 -5 -5 -5 -5 -5 -5 -5 -4 -4 -4 -4 -3 -3 -2 -2 -2 -2 -2 -2 -2 -2 -2 -2 -3
-4 -4 -4 -4 -4 -4 -5 -5 -5 -6 -6 -6 -6 -6 -6 -6 -5 -5 -4 -4 -4 -5 -5 -6 -5 -5 -4 -4 -4 -3 -3 -3 -2 -2 -1 -1 -1 -0 -0 -0 -1 -1 -1
-5 -5 -5 -5 -5 -5 -5 -5 -5 -5 -5 -5 -6 -6 -6 -6 -5 -5 -4 -4 -4 -4 -5 -5 -5 -5 -4 -4 -3 -2 -2 -3 -2 -2 -1 -1 -1 -1 -0 -0 -0 -0 -0
-5 -5 -5 -5 -5 -5 -5 -5 -5 -5 -5 -5 -5 -5 -5 -5 -4 -4 -3 -3 -3 -3 -3 -4 -4 -4 -3 -3 -2 -2 -2 -2 -2 -2 -2 -2 -2 -1 -1 -0 0 0 1
-4 -5 -5 -5 -5 -5 -4 -3 -3 -3 -3 -4 -3 -3 -3 -3 -2 -2 -2 -2 -1 -2 -2 -2 -2 -2 -2 -1 -1 -1 -1 -1 -1 -2 -2 -2 -1 -1 -0 0 1 1 1
-3 -3 -3 -3 -3 -3 -3 -2 -1 -1 -1 -1 -1 -1 -1 -1 -0 -0 -0 -0 0 -0 -0 -1 -0 -0 0 0 1 0 -0 -1 -1 -1 -1 -1 0 1 1 1 1 1 1
-3 -3 -2 -2 -2 -2 -1 -0 0 0 0 0 0 0 1 0 0 0 0 0 0 0 0 0 0 1 1 2 2 1 0 -0 -0 -0 0 1 2 2 3 2 2 1 1
-1 -1 -1 -1 -0 0 1 1 1 1 0 0 1 1 1 0 0 0 0 -0 -0 -0 0 1 1 1 2 2 2 2 1 1 2 2 2 2 3 3 4 3 3 2 1
-0 -1 -1 -0 -0 0 1 1 1 1 0 0 0 0 -0 -0 -0 -0 -1 -1 -1 -0 0 1 1 2 2 3 3 3 3 3 4 4 3 4 4 4 4 4 4 3 2
0 -0 -0 -0 -0 0 1 1 1 1 2 2 1 1 0 -0 -0 -0 -0 0 1 1 1 1 2 3 3 4 4 4 4 4 5 5 5 5 5 5 5 5 4 4 3
2 2 2 1 1 1 1 1 2 2 3 3 3 2 2 1 1 1 1 1 2 1 1 1 2 4 4 5 5 5 5 5 6 6 7 7 7 7 6 6 5 5 5
6 5 4 4 3 3 3 2 3 3 3 4 4 3 3 2 2 2 2 1 1 1 1 1 2 3 4 5 5 5 5 6 7 8 9 9 10 9 8 8 7 7 8
8 7 6 6 6 5 5 5 5 5 4 5 5 5 4 4 3 2 2 1 1 1 1 1 2 3 4 4 5 5 6 7 9 9 10 11 11 10 10 9 9 9 10
8 8 8 8 8 7 7 8 7 7 7 7 7 7 7 6 5 4 3 2 2 1 1 2 2 3 3 4 5 6 7 8 9 10 10 11 11 10 10 10 10 10 10
9 9 9 9 9 9 9 9 9 9 9 9 9 9 9 8 7 6 5 4 3 2 2 2 2 3 3 4 5 6 7 8 9 9 10 10 10 10 10 10 10 11 11
8 9 9 9 9 9 9 9 9 9 9 9 9 9 9 8 8 7 7 6 5 4 3 3 3 3 3 3 4 5 6 7 8 8 9 9 10 10 10 10 10 10 10
9 9 9 9 9 9 9 9 9 9 9 9 8 8 8 8 8 7 7 6 6 5 4 4 3 3 3 3 3 3 4 5 6 7 7 8 8 8 8 8 8 8 9
8 8 8 8 8 8 8 8 8 8 8 8 8 8 8 7 7 7 7 6 6 6 5 5 5 4 4 3 2 2 2 3 4 5 5 6 6 6 6 6 6 7 7
7 7 7 7 7 7 7 7 7 7 7 7 7 7 7 7 7 7 7 6 6 6 6 5 5 5 5 4 3 2 2 2 2 3 4 5 5 5 5 5 5 5 5